Tracking 25953 objects as of 15-Aug-2022
HD Live streaming from Space Station
objects crossing your sky now

SL-8 R/B

Track SL-8 R/B now!
10-day predictions


NORAD ID: 21108
Int'l Code: 1991-009J
Perigee: 1,466.5 km
Apogee: 1,746.2 km
Inclination: 74.1 °
Period: 118.2 minutes
Semi major axis: 7977 km
RCS: 5.6696 m2 (large)
Launch date: February 12, 1991
Source: Commonwealth of Independent States (former USSR) (CIS)
Launch site: PLESETSK MISSILE AND SPACE COMPLEX (PKMTR)

Note: This is a ROCKET BODY
aabbcc
Your satellite tracking list
Your tracking list is empty




NASA's NSSDC Master Catalog

Two Line Element Set (TLE):
1 21108U 91009J   22227.38148441 -.00000092  00000-0 -73438-3 0  9990
2 21108  74.0517 197.0421 0175338 142.5063 329.6197 12.18474204294904
Source of the keplerian elements: AFSPC